Regional Weather Roundup
Issued by NWS

Home | Current Version | Previous Version | Graphics & Text | Print | Product List | Glossary On
Versions: 1 2 3 4 5 6 7 8 9 10 11 12 13 14 15 16 17 18 19 20 21 22 23 24 25 26 27 28 29 30 31 32 33 34 35 36 37 38 39 40 41 42 43 44 45 46 47 48 49 50
000
ASUS43 KFSD 211810
RWRSD

WEATHER ROUNDUP FOR SOUTH DAKOTA
NATIONAL WEATHER SERVICE SIOUX FALLS SD
1200 PM CST TUE NOV 21 2017

NOTE: "FAIR" INDICATES FEW OR NO CLOUDS BELOW 12,000 FEET WITH NO
SIGNIFICANT WEATHER AND/OR OBSTRUCTIONS TO VISIBILITY.


SDZ001>005-009-010-012>017-211900-
NORTHWEST AND NORTH CENTRAL SOUTH DAKOTA

CITY           SKY/WX    TMP DP  RH WIND       PRES   REMARKS
BUFFALO          N/A     22   6  50 W14       30.25F WCI   9
FAITH            N/A     20   1  43 NW18      30.34S WCI   5
MOBRIDGE       SUNNY     19   5  54 NW9       30.36R WCI   8
$$

SDZ012>016-024>037-041>051-057-063-072>074-211900-
SOUTHWEST AND SOUTH CENTRAL SOUTH DAKOTA

CITY           SKY/WX    TMP DP  RH WIND       PRES   REMARKS
RAPID CTY ARPT SUNNY     29  19  66 N9        30.33S WCI  20
PIERRE         SUNNY     21   7  54 NW18G25   30.38S WCI   6
CUSTER         CLOUDY    35  21  56 E3        30.21S
ELLSWORTH AFB  SUNNY     27  20  73 N12       30.32R WCI  17
PHILIP         SUNNY     24   9  52 N15G28    30.38R WCI  11
PINE RIDGE     CLOUDY    32  22  66 VRB3      30.34R
SPEARFISH      FAIR      30  19  64 W9        30.29F WCI  22
WINNER         FAIR      20  10  65 NW17      30.38R WCI   5
$$

SDZ004>011-016>023-039-040-211900-
NORTHEAST SOUTH DAKOTA

CITY           SKY/WX    TMP DP  RH WIND       PRES   REMARKS
ABERDEEN       SUNNY     22   6  50 NW20      30.35R WCI   7
WATERTOWN      SUNNY     21   7  54 NW21G32   30.25R WCI   5
BROOKINGS      SUNNY     22   9  57 NW24      30.24R WCI   5
SISSETON         N/A     23   8  52 NW24      30.28R WCI   7
$$

SDZ017-020-022-023-036>040-048>070-211900-
SOUTHEAST SOUTH DAKOTA

CITY           SKY/WX    TMP DP  RH WIND       PRES   REMARKS
SIOUX FALLS    SUNNY     26  11  52 NW21G29   30.27R WCI  12
HURON          SUNNY     22   7  52 N18G26    30.35R WCI   7
CHAMBERLAIN    SUNNY     24   9  54 NW17      30.38S WCI  10
MITCHELL       SUNNY     23   8  52 NW24      30.36R WCI   7
YANKTON        SUNNY     24   9  52 NW24      30.32R WCI   8
$$

ABBREVIATIONS USED IN REMARKS
   TC - TEMPERATURE IN CELSIUS
  WCI - WIND CHILL INDEX
   HX - HEAT INDEX
  VSB - VISIBILITY





USA.gov is the U.S. government's official web portal to all federal, state and local government web resources and services.